Content
SEND FEEDBACK

Daily
Averages
Monthly
Summary
United States of America

NEW YORK - CENTRAL PARK, NEW YORK


Home > North America > United States > New York
Elevation: 14 feet     Latitude: 40 47N     Longitude: 073 58W

WEATHER
 
SELECT A DAY
Number of Records: 148,168;   Date Range: 11/1/95 - 8/12/14
 
SHARE

PRINT THIS DATA

[ ← Previous Day ]
WEATHER ALMANAC - APRIL 3, 2013
[ Next Day → ]
[ °C ]   °F
Weather ElementAverageHighLow
Temperature36.7 °F45 °F (3:51 pm) (4:15 pm)
Dewpoint9.1 °F12 °F (7:51 am) (7:00 pm)
Humidity31.3 %42 % (7:51 am)22 % (4:51 pm)
Barometer28.90 in30.29 in (10:51 pm) (7:00 pm)
Wind Speed10.7 mph15 mph (8:51 am)
Wind Gust28.8 mph (11:51 pm)
Weather ElementAverage
Visibility10 mi
Wind DirectionWSW (232.1 °)

Weather ElementTotal
Precipitation---
Heating Degree Days42.5 (Base 65)
Averaged from 24 records on April 3, 2013
WEATHER CONDITIONS BREAKOUT
WIND DIRECTION BREAKOUT
WEATHER BY HOUR - APRIL 3, 2013
[ °C ]   °F
Local TimeTemperatureDewpointHumidityBarometerVisibilityWind DirectionWind SpeedGust SpeedPrecipitationEventsConditions
1:51 AM35.1 °F8.1 °F33 %30.09 in10.0 miWNW (290°)8.1 mphClear
2:51 AM35.1 °F9.0 °F34 %30.08 in10.0 miWNW (290°)10.4 mph21.9 mphClear
3:51 AM34.0 °F10.0 °F37 %30.08 in10.0 miWest (280°)10.4 mph18.4 mphClear
4:51 AM34.0 °F10.9 °F38 %30.09 in10.0 miWNW (300°)10.4 mph20.7 mphClear
5:51 AM33.1 °F10.9 °F40 %30.11 in10.0 miVariable6.9 mphClear
6:51 AM33.1 °F10.9 °F40 %30.14 in10.0 miWNW (290°)11.5 mph17.3 mphClear
7:51 AM33.1 °F12.0 °F42 %30.16 in10.0 miWest (270°)8.1 mph21.9 mphClear
8:51 AM34.0 °F12.0 °F40 %30.15 in10.0 miWest (280°)15.0 mph23.0 mphClear
9:51 AM36.0 °F10.9 °F36 %30.15 in10.0 miVariable5.8 mph20.7 mphClear
10:51 AM39.0 °F12.0 °F33 %30.14 in10.0 miVariable4.6 mph19.6 mphClear
11:51 AM39.9 °F9.0 °F28 %30.15 in10.0 miNW (310°)15.0 mph24.2 mphClear
12:51 PM42.1 °F10.0 °F27 %30.14 in10.0 miWest (280°)12.7 mph26.5 mphPartly Cloudy
1:51 PM43.0 °F10.0 °F26 %30.12 in10.0 miWNW (290°)12.7 mph23.0 mphClear
2:51 PM44.1 °F8.1 °F23 %30.10 in10.0 miWest (270°)10.4 mph27.6 mphClear
3:51 PM45.0 °F9.0 °F23 %30.11 in10.0 miWNW (290°)11.5 mph21.9 mphClear
4:15 PM0.0 °F0.0 °FNorth
4:51 PM44.1 °F7.0 °F22 %30.11 in10.0 miWest (280°)11.5 mph27.6 mphClear
5:51 PM44.1 °F7.0 °F22 %30.14 in10.0 miNW (310°)13.8 mph26.5 mphPartly Cloudy
6:51 PM42.1 °F6.1 °F23 %30.18 in10.0 miNW (310°)15.0 mph26.5 mphClear
7:51 PM41.0 °F8.1 °F26 %30.22 in10.0 miNW (320°)11.5 mph17.3 mphClear
8:51 PM39.0 °F8.1 °F28 %30.25 in10.0 miWNW (300°)12.7 mph24.2 mphClear
9:51 PM37.9 °F9.0 °F30 %30.27 in10.0 miVariable5.8 mph20.7 mphClear
10:51 PM37.0 °F10.0 °F33 %30.29 in10.0 miWNW (300°)10.4 mph26.5 mphClear
11:51 PM36.0 °F10.9 °F36 %30.28 in10.0 miNW (310°)12.7 mph28.8 mphClear
Hourly data recorded from KNYC, located miles away from New York - Central Park, New York







STORIES FROM OUR PARTNERS